UAL916 KDEN-KSLC

Flight info

Callsign UAL916
Flight time 1h 4m
Altitude 32000
Route ZIMMR4 CHNGY EKR RACER JAZZZ1
Aircraft B738/M-SDE2E3FGHIRWXY/LB1

Departure

Time 2026-05-04 02:40
Airport Denver International Airport (KDEN)

Arrival

Time 2026-05-04 03:45
Airport Salt Lake City International Airport (KSLC)
Time Latitude Longitude Altitude Speed Heading
2026-05-04 01:56 39.85926 -104.67298 5386 ft 0 kts 182°
2026-05-04 02:23 39.85935 -104.67297 5383 ft 3 kts 181°
2026-05-04 02:23 39.85956 -104.67297 5383 ft 3 kts 181°
2026-05-04 02:23 39.85976 -104.67296 5381 ft 3 kts 181°
2026-05-04 02:24 39.85997 -104.67296 5384 ft 3 kts 181°
2026-05-04 02:24 39.86012 -104.67296 5383 ft 0 kts 181°
2026-05-04 02:25 39.86007 -104.67298 5382 ft 2 kts 200°
2026-05-04 02:26 39.85998 -104.67323 5381 ft 4 kts 265°
2026-05-04 02:26 39.86002 -104.67356 5383 ft 7 kts 289°
2026-05-04 02:26 39.86034 -104.67416 5386 ft 10 kts 306°
2026-05-04 02:26 39.86065 -104.67503 5386 ft 12 kts 276°
2026-05-04 02:27 39.86066 -104.67620 5386 ft 14 kts 270°
2026-05-04 02:27 39.86068 -104.67760 5385 ft 17 kts 271°
2026-05-04 02:27 39.86070 -104.67921 5385 ft 19 kts 270°
2026-05-04 02:27 39.86065 -104.68100 5383 ft 20 kts 258°
2026-05-04 02:28 39.86035 -104.68273 5376 ft 21 kts 269°
2026-05-04 02:28 39.85942 -104.68396 5367 ft 25 kts 179°
2026-05-04 02:28 39.85768 -104.68393 5369 ft 25 kts 179°
2026-05-04 02:28 39.85595 -104.68395 5373 ft 25 kts 180°
2026-05-04 02:29 39.85415 -104.68395 5373 ft 27 kts 180°
2026-05-04 02:29 39.85258 -104.68407 5374 ft 16 kts 197°
2026-05-04 02:29 39.85148 -104.68471 5370 ft 20 kts 216°
2026-05-04 02:29 39.85028 -104.68608 5367 ft 25 kts 222°
2026-05-04 02:30 39.84883 -104.68772 5360 ft 30 kts 220°
2026-05-04 02:30 39.84722 -104.68957 5361 ft 31 kts 221°
2026-05-04 02:30 39.84584 -104.69116 5363 ft 21 kts 221°
2026-05-04 02:30 39.84471 -104.69246 5363 ft 22 kts 221°
2026-05-04 02:31 39.84350 -104.69385 5364 ft 23 kts 218°
2026-05-04 02:31 39.84248 -104.69405 5365 ft 11 kts 126°
2026-05-04 02:31 39.84238 -104.69297 5365 ft 14 kts 90°
2026-05-04 02:31 39.84237 -104.69137 5362 ft 23 kts 90°
2026-05-04 02:32 39.84235 -104.68886 5361 ft 31 kts 90°
2026-05-04 02:32 39.84233 -104.68609 5359 ft 30 kts 91°
2026-05-04 02:32 39.84205 -104.68438 5357 ft 17 kts 142°
2026-05-04 02:32 39.84178 -104.68427 5358 ft 0 kts 175°
2026-05-04 02:33 39.84174 -104.68427 5360 ft 5 kts 178°
2026-05-04 02:33 39.84092 -104.68449 5363 ft 14 kts 222°
2026-05-04 02:33 39.84078 -104.68528 5360 ft 7 kts 271°
2026-05-04 02:34 39.84080 -104.68626 5364 ft 26 kts 270°
2026-05-04 02:34 39.84083 -104.68866 5361 ft 20 kts 279°
2026-05-04 02:34 39.84125 -104.68919 5362 ft 4 kts 356°
2026-05-04 02:34 39.84154 -104.68920 5361 ft 5 kts 359°
2026-05-04 02:35 39.84163 -104.68920 5361 ft 2 kts 359°
2026-05-04 02:35 39.84177 -104.68920 5361 ft 4 kts 359°
2026-05-04 02:35 39.84226 -104.68958 5361 ft 14 kts 295°
2026-05-04 02:35 39.84237 -104.69122 5362 ft 23 kts 271°
2026-05-04 02:36 39.84237 -104.69329 5364 ft 22 kts 270°
2026-05-04 02:36 39.84300 -104.69427 5363 ft 14 kts 20°
2026-05-04 02:36 39.84376 -104.69352 5366 ft 16 kts 40°
2026-05-04 02:36 39.84605 -104.69093 5362 ft 59 kts 41°
2026-05-04 02:37 39.84870 -104.68790 5360 ft 33 kts 41°
2026-05-04 02:37 39.85002 -104.68719 5361 ft 20 kts 353°
2026-05-04 02:37 39.85131 -104.68770 5361 ft 20 kts 317°
2026-05-04 02:37 39.85192 -104.68961 5354 ft 26 kts 276°
2026-05-04 02:38 39.85198 -104.69211 5347 ft 28 kts 271°
2026-05-04 02:38 39.85203 -104.69456 5339 ft 26 kts 271°
2026-05-04 02:38 39.85223 -104.69631 5335 ft 13 kts 305°
2026-05-04 02:38 39.85291 -104.69661 5336 ft 0 kts 359°
2026-05-04 02:39 39.85310 -104.69661 5335 ft 19 kts 359°
2026-05-04 02:40 39.85712 -104.69661 5341 ft 93 kts
2026-05-04 02:40 39.86569 -104.69651 5332 ft 154 kts
2026-05-04 02:40 39.87801 -104.69635 5590 ft 189 kts 360°
2026-05-04 02:40 39.89106 -104.69653 6568 ft 192 kts 359°
2026-05-04 02:41 39.90528 -104.69547 6851 ft 217 kts 349°
2026-05-04 02:41 39.91871 -104.70488 7007 ft 231 kts 307°
2026-05-04 02:41 39.92456 -104.72470 7233 ft 246 kts 271°
2026-05-04 02:41 39.92438 -104.74725 7772 ft 252 kts 268°
2026-05-04 02:42 39.92431 -104.77106 8114 ft 271 kts 271°
2026-05-04 02:42 39.92527 -104.79600 8815 ft 277 kts 274°
2026-05-04 02:42 39.92667 -104.82077 9534 ft 278 kts 275°
2026-05-04 02:42 39.92827 -104.84595 9850 ft 281 kts 276°
2026-05-04 02:43 39.92992 -104.87135 9846 ft 281 kts 276°
2026-05-04 02:43 39.93158 -104.89668 9857 ft 280 kts 276°
2026-05-04 02:43 39.93289 -104.92211 9927 ft 287 kts 274°
2026-05-04 02:43 39.93359 -104.94922 10112 ft 311 kts 273°
2026-05-04 02:44 39.93415 -104.97842 10426 ft 330 kts 272°
2026-05-04 02:44 39.93471 -105.00880 11035 ft 338 kts 272°
2026-05-04 02:44 39.93532 -105.03942 11887 ft 338 kts 273°
2026-05-04 02:44 39.93597 -105.07024 12617 ft 342 kts 273°
2026-05-04 02:45 39.93666 -105.10148 13320 ft 347 kts 273°
2026-05-04 02:45 39.93737 -105.13298 14034 ft 350 kts 273°
2026-05-04 02:45 39.93807 -105.16480 14727 ft 352 kts 273°
2026-05-04 02:45 39.93876 -105.19645 15404 ft 355 kts 273°
2026-05-04 02:46 39.93963 -105.22872 16082 ft 358 kts 275°
2026-05-04 02:46 39.94179 -105.26114 16725 ft 361 kts 277°
2026-05-04 02:46 39.94463 -105.29382 17368 ft 364 kts 277°
2026-05-04 02:46 39.94749 -105.32678 17978 ft 368 kts 277°
2026-05-04 02:47 39.95021 -105.36004 18583 ft 370 kts 276°
2026-05-04 02:47 39.95283 -105.39356 19193 ft 372 kts 276°
2026-05-04 02:47 39.95544 -105.42722 19793 ft 374 kts 276°
2026-05-04 02:47 39.95808 -105.46099 20400 ft 375 kts 276°
2026-05-04 02:48 39.96073 -105.49491 20980 ft 377 kts 276°
2026-05-04 02:48 39.96336 -105.52867 21532 ft 380 kts 276°
2026-05-04 02:48 39.96603 -105.56304 22091 ft 382 kts 276°
2026-05-04 02:48 39.96867 -105.59761 22681 ft 384 kts 276°
2026-05-04 02:49 39.97132 -105.63245 23197 ft 387 kts 276°
2026-05-04 02:49 39.97396 -105.66761 23742 ft 389 kts 275°
2026-05-04 02:49 39.97611 -105.70292 24201 ft 391 kts 274°
2026-05-04 02:49 39.97789 -105.73849 24673 ft 393 kts 274°
2026-05-04 02:50 39.97953 -105.77374 25111 ft 395 kts 274°
2026-05-04 02:50 39.98118 -105.80965 25524 ft 398 kts 274°
2026-05-04 02:50 39.98288 -105.84583 25935 ft 400 kts 274°
2026-05-04 02:50 39.98462 -105.88220 26333 ft 403 kts 274°
2026-05-04 02:51 39.98639 -105.91877 26738 ft 404 kts 274°
2026-05-04 02:51 39.98816 -105.95524 27255 ft 402 kts 274°
2026-05-04 02:51 39.98992 -105.99149 27849 ft 399 kts 274°
2026-05-04 02:51 39.99166 -106.02745 28371 ft 397 kts 274°
2026-05-04 02:52 39.99338 -106.06342 28842 ft 397 kts 273°
2026-05-04 02:52 39.99510 -106.09937 29362 ft 395 kts 273°
2026-05-04 02:52 39.99678 -106.13499 29913 ft 393 kts 273°
2026-05-04 02:52 39.99843 -106.17008 30353 ft 391 kts 273°
2026-05-04 02:53 40.00008 -106.20551 30726 ft 391 kts 273°
2026-05-04 02:53 40.00172 -106.24087 31125 ft 390 kts 273°
2026-05-04 02:53 40.00334 -106.27612 31506 ft 388 kts 273°
2026-05-04 02:53 40.00495 -106.31128 31877 ft 388 kts 273°
2026-05-04 02:54 40.00816 -106.38207 31934 ft 392 kts 273°
2026-05-04 02:54 40.01131 -106.45222 31914 ft 386 kts 273°
2026-05-04 02:55 40.01591 -106.55741 31920 ft 389 kts 273°
2026-05-04 02:56 40.01894 -106.62817 31919 ft 390 kts 273°
2026-05-04 02:56 40.02193 -106.69895 31918 ft 391 kts 273°
2026-05-04 02:57 40.02490 -106.76998 31936 ft 392 kts 273°
2026-05-04 02:57 40.02780 -106.84063 31932 ft 392 kts 273°
2026-05-04 02:58 40.03068 -106.91173 31939 ft 392 kts 272°
2026-05-04 02:58 40.03352 -106.98273 31948 ft 391 kts 272°
2026-05-04 02:59 40.03628 -107.05317 31955 ft 390 kts 272°
2026-05-04 02:59 40.03902 -107.12379 31956 ft 390 kts 272°
2026-05-04 03:00 40.04171 -107.19450 31947 ft 390 kts 272°
2026-05-04 03:00 40.04436 -107.26522 31955 ft 390 kts 272°
2026-05-04 03:01 40.04695 -107.33565 31946 ft 391 kts 272°
2026-05-04 03:01 40.04952 -107.40653 31956 ft 391 kts 272°
2026-05-04 03:02 40.05205 -107.47752 31957 ft 392 kts 272°
2026-05-04 03:02 40.05454 -107.54862 31972 ft 392 kts 272°
2026-05-04 03:03 40.05697 -107.61932 31982 ft 392 kts 272°
2026-05-04 03:03 40.05938 -107.69048 32009 ft 392 kts 272°
2026-05-04 03:04 40.06174 -107.76164 32020 ft 392 kts 272°
2026-05-04 03:04 40.06406 -107.83284 32027 ft 392 kts 272°
2026-05-04 03:05 40.06635 -107.90412 32028 ft 392 kts 272°
2026-05-04 03:05 40.06900 -107.97475 32028 ft 392 kts 273°
2026-05-04 03:06 40.07240 -108.04577 32008 ft 391 kts 273°
2026-05-04 03:06 40.07578 -108.11683 31975 ft 391 kts 273°
2026-05-04 03:07 40.07902 -108.18774 31944 ft 391 kts 272°
2026-05-04 03:07 40.08216 -108.25822 31910 ft 391 kts 272°
2026-05-04 03:08 40.08526 -108.32927 31863 ft 392 kts 272°
2026-05-04 03:08 40.08833 -108.40045 31852 ft 392 kts 272°
2026-05-04 03:09 40.09135 -108.47149 31847 ft 392 kts 272°
2026-05-04 03:09 40.09433 -108.54251 31838 ft 392 kts 272°
2026-05-04 03:10 40.09725 -108.61324 31842 ft 392 kts 272°
2026-05-04 03:10 40.10015 -108.68449 31836 ft 392 kts 272°
2026-05-04 03:11 40.10300 -108.75564 31833 ft 392 kts 272°
2026-05-04 03:11 40.10582 -108.82685 31829 ft 393 kts 272°
2026-05-04 03:12 40.10859 -108.89820 31822 ft 393 kts 272°
2026-05-04 03:12 40.11128 -108.96910 31823 ft 393 kts 272°
2026-05-04 03:13 40.11393 -109.04041 31812 ft 393 kts 272°
2026-05-04 03:13 40.11612 -109.09981 31810 ft 393 kts 271°
2026-05-04 03:14 40.11870 -109.17119 31800 ft 394 kts 271°
2026-05-04 03:14 40.12125 -109.24278 31802 ft 394 kts 271°
2026-05-04 03:15 40.12375 -109.31431 31803 ft 394 kts 271°
2026-05-04 03:15 40.12621 -109.38588 31824 ft 394 kts 271°
2026-05-04 03:16 40.12862 -109.45705 31825 ft 394 kts 271°
2026-05-04 03:16 40.13099 -109.52870 31832 ft 394 kts 271°
2026-05-04 03:17 40.13331 -109.60015 31827 ft 393 kts 271°
2026-05-04 03:17 40.13559 -109.67155 31819 ft 392 kts 271°
2026-05-04 03:18 40.13781 -109.74232 31806 ft 392 kts 270°
2026-05-04 03:18 40.13999 -109.81359 31806 ft 391 kts 270°
2026-05-04 03:19 40.14214 -109.88479 31804 ft 392 kts 270°
2026-05-04 03:19 40.14423 -109.95570 31785 ft 384 kts 270°
2026-05-04 03:19 40.14523 -109.99001 31333 ft 382 kts 270°
2026-05-04 03:20 40.14622 -110.02466 30935 ft 379 kts 270°
2026-05-04 03:20 40.14720 -110.05904 30546 ft 377 kts 270°
2026-05-04 03:20 40.14816 -110.09321 30159 ft 375 kts 270°
2026-05-04 03:20 40.14911 -110.12712 29756 ft 373 kts 270°
2026-05-04 03:21 40.14955 -110.16086 29308 ft 370 kts 268°
2026-05-04 03:21 40.14935 -110.19440 28865 ft 367 kts 267°
2026-05-04 03:21 40.14892 -110.22768 28432 ft 365 kts 267°
2026-05-04 03:21 40.14845 -110.26074 28010 ft 362 kts 267°
2026-05-04 03:22 40.14802 -110.29363 27604 ft 360 kts 267°
2026-05-04 03:22 40.14764 -110.32629 27169 ft 358 kts 267°
2026-05-04 03:22 40.14729 -110.35876 26758 ft 356 kts 267°
2026-05-04 03:22 40.14696 -110.39110 26360 ft 354 kts 267°
2026-05-04 03:23 40.14665 -110.42283 25975 ft 353 kts 267°
2026-05-04 03:23 40.14633 -110.45481 25578 ft 351 kts 268°
2026-05-04 03:23 40.14601 -110.48666 25197 ft 349 kts 268°
2026-05-04 03:23 40.14569 -110.51842 24813 ft 348 kts 268°
2026-05-04 03:24 40.14536 -110.54999 24441 ft 346 kts 268°
2026-05-04 03:24 40.14502 -110.58139 24063 ft 345 kts 268°
2026-05-04 03:24 40.14467 -110.61266 23708 ft 344 kts 268°
2026-05-04 03:24 40.14432 -110.64389 23327 ft 342 kts 268°
2026-05-04 03:25 40.14397 -110.67455 22906 ft 341 kts 268°
2026-05-04 03:25 40.14360 -110.70552 22481 ft 340 kts 268°
2026-05-04 03:25 40.14323 -110.73645 22060 ft 339 kts 268°
2026-05-04 03:25 40.14285 -110.76722 21648 ft 338 kts 268°
2026-05-04 03:26 40.14246 -110.79792 21240 ft 337 kts 268°
2026-05-04 03:26 40.14207 -110.82858 20835 ft 337 kts 268°
2026-05-04 03:26 40.14166 -110.85918 20446 ft 336 kts 268°
2026-05-04 03:26 40.14125 -110.88974 20053 ft 335 kts 268°
2026-05-04 03:27 40.14084 -110.92021 19659 ft 335 kts 268°
2026-05-04 03:27 40.14041 -110.95061 19292 ft 334 kts 268°
2026-05-04 03:27 40.13999 -110.98048 19002 ft 330 kts 268°
2026-05-04 03:27 40.13956 -111.01029 18720 ft 327 kts 268°
2026-05-04 03:28 40.13913 -111.03991 18439 ft 324 kts 268°
2026-05-04 03:28 40.13869 -111.06916 18148 ft 321 kts 268°
2026-05-04 03:28 40.13825 -111.09822 17818 ft 318 kts 268°
2026-05-04 03:28 40.13781 -111.12706 17518 ft 316 kts 268°
2026-05-04 03:29 40.13737 -111.15563 17199 ft 314 kts 268°
2026-05-04 03:29 40.13691 -111.18400 16875 ft 311 kts 268°
2026-05-04 03:29 40.13645 -111.21221 16571 ft 309 kts 268°
2026-05-04 03:29 40.13600 -111.23993 16277 ft 308 kts 268°
2026-05-04 03:30 40.13552 -111.26788 15970 ft 306 kts 268°
2026-05-04 03:30 40.13505 -111.29565 15675 ft 305 kts 268°
2026-05-04 03:30 40.13457 -111.32334 15383 ft 304 kts 268°
2026-05-04 03:30 40.13408 -111.35104 15108 ft 304 kts 268°
2026-05-04 03:31 40.13359 -111.37846 15018 ft 299 kts 268°
2026-05-04 03:31 40.13311 -111.40569 15015 ft 303 kts 268°
2026-05-04 03:31 40.13259 -111.43392 15045 ft 315 kts 268°
2026-05-04 03:31 40.13207 -111.46273 15051 ft 317 kts 268°
2026-05-04 03:32 40.13154 -111.49108 15048 ft 315 kts 268°
2026-05-04 03:32 40.13100 -111.51966 15049 ft 313 kts 268°
2026-05-04 03:32 40.13125 -111.54810 15035 ft 312 kts 278°
2026-05-04 03:32 40.13838 -111.57505 14824 ft 319 kts 295°
2026-05-04 03:33 40.14841 -111.60120 14469 ft 324 kts 296°
2026-05-04 03:33 40.15806 -111.62784 14117 ft 323 kts 294°
2026-05-04 03:33 40.16690 -111.65475 13763 ft 322 kts 293°
2026-05-04 03:33 40.17698 -111.68070 13363 ft 318 kts 304°
2026-05-04 03:34 40.19138 -111.70177 12976 ft 311 kts 318°
2026-05-04 03:34 40.20770 -111.72003 12583 ft 306 kts 321°
2026-05-04 03:34 40.22397 -111.73761 12222 ft 301 kts 320°
2026-05-04 03:34 40.23992 -111.75533 12071 ft 302 kts 319°
2026-05-04 03:35 40.25547 -111.77316 12015 ft 292 kts 319°
2026-05-04 03:35 40.27040 -111.79064 11996 ft 281 kts 318°
2026-05-04 03:35 40.28483 -111.80776 12014 ft 280 kts 318°
2026-05-04 03:35 40.29926 -111.82497 12006 ft 279 kts 317°
2026-05-04 03:36 40.31361 -111.84215 12008 ft 280 kts 317°
2026-05-04 03:36 40.32805 -111.85946 12023 ft 280 kts 317°
2026-05-04 03:36 40.34228 -111.87652 11914 ft 281 kts 317°
2026-05-04 03:36 40.35802 -111.89155 11656 ft 281 kts 336°
2026-05-04 03:37 40.37663 -111.89894 11429 ft 279 kts 347°
2026-05-04 03:37 40.39567 -111.90431 11170 ft 279 kts 348°
2026-05-04 03:37 40.41448 -111.90951 10894 ft 272 kts 348°
2026-05-04 03:37 40.43266 -111.91477 10557 ft 264 kts 347°
2026-05-04 03:38 40.45027 -111.92008 10250 ft 254 kts 347°
2026-05-04 03:38 40.46729 -111.92536 9939 ft 249 kts 346°
2026-05-04 03:38 40.48412 -111.93066 9622 ft 248 kts 346°
2026-05-04 03:38 40.50085 -111.93595 9289 ft 246 kts 346°
2026-05-04 03:39 40.51727 -111.94109 8989 ft 244 kts 347°
2026-05-04 03:39 40.53369 -111.94494 8739 ft 236 kts 352°
2026-05-04 03:39 40.54978 -111.94728 8435 ft 229 kts 355°
2026-05-04 03:39 40.56547 -111.94905 8155 ft 223 kts 355°
2026-05-04 03:40 40.58069 -111.95073 7878 ft 217 kts 355°
2026-05-04 03:40 40.59558 -111.95243 7608 ft 212 kts 355°
2026-05-04 03:40 40.61010 -111.95411 7339 ft 206 kts 355°
2026-05-04 03:40 40.62419 -111.95574 7083 ft 200 kts 355°
2026-05-04 03:41 40.63784 -111.95732 6852 ft 193 kts 355°
2026-05-04 03:41 40.65103 -111.95884 6641 ft 187 kts 355°
2026-05-04 03:41 40.66376 -111.96031 6434 ft 180 kts 355°
2026-05-04 03:41 40.67571 -111.96169 6263 ft 164 kts 354°
2026-05-04 03:42 40.68634 -111.96292 6026 ft 148 kts 354°
2026-05-04 03:42 40.69655 -111.96410 5852 ft 148 kts 353°
2026-05-04 03:42 40.70681 -111.96530 5657 ft 149 kts 353°
2026-05-04 03:42 40.71715 -111.96650 5445 ft 148 kts 354°
2026-05-04 03:43 40.72735 -111.96767 5241 ft 147 kts 354°
2026-05-04 03:43 40.73752 -111.96885 5028 ft 146 kts 355°
2026-05-04 03:43 40.74761 -111.97002 4822 ft 145 kts 355°
2026-05-04 03:43 40.75760 -111.97117 4626 ft 143 kts 355°
2026-05-04 03:44 40.76752 -111.97231 4415 ft 142 kts 355°
2026-05-04 03:44 40.77732 -111.97345 4240 ft 138 kts 355°
2026-05-04 03:44 40.78600 -111.97448 4233 ft 108 kts 355°
2026-05-04 03:44 40.79142 -111.97505 4235 ft 50 kts 354°
2026-05-04 03:45 40.79387 -111.97557 4232 ft 29 kts 342°
2026-05-04 03:45 40.79465 -111.97599 4232 ft 9 kts 332°
2026-05-04 03:45 40.79511 -111.97637 4231 ft 0 kts 326°
2026-05-04 03:47 40.79517 -111.97642 4231 ft 5 kts 326°
2026-05-04 03:48 40.79537 -111.97724 4233 ft 13 kts 249°
2026-05-04 03:48 40.79459 -111.97760 4233 ft 13 kts 180°
2026-05-04 03:48 40.79371 -111.97759 4233 ft 12 kts 176°
2026-05-04 03:48 40.79286 -111.97752 4233 ft 12 kts 175°
2026-05-04 03:49 40.79215 -111.97779 4232 ft 12 kts 250°
2026-05-04 03:49 40.79201 -111.97883 4234 ft 11 kts 263°
2026-05-04 03:49 40.79193 -111.97984 4234 ft 11 kts 265°
2026-05-04 03:49 40.79188 -111.98084 4234 ft 11 kts 264°
2026-05-04 03:50 40.79181 -111.98181 4234 ft 10 kts 264°
2026-05-04 03:50 40.79174 -111.98274 4234 ft 10 kts 263°
2026-05-04 03:50 40.79165 -111.98365 4234 ft 10 kts 262°
2026-05-04 03:50 40.79155 -111.98453 4234 ft 10 kts 263°
2026-05-04 03:51 40.79149 -111.98540 4234 ft 9 kts 265°
2026-05-04 03:51 40.79142 -111.98624 4234 ft 9 kts 258°
2026-05-04 03:51 40.79106 -111.98686 4233 ft 8 kts 212°
2026-05-04 03:51 40.79060 -111.98712 4234 ft 5 kts 201°
2026-05-04 03:52 40.79028 -111.98724 4234 ft 4 kts 187°
2026-05-04 03:52 40.78999 -111.98722 4234 ft 4 kts 174°
2026-05-04 03:52 40.78976 -111.98718 4234 ft 2 kts 174°
2026-05-04 03:52 40.78962 -111.98717 4234 ft 0 kts 176°